Notices

What's New in latest Release from April 7th, 2021:

- Updated Glossary, including Speed of Maximum Gust, and Total Hourly Precipitation

- Updated national and regional climate services offices contacts and prices information

- Addition of station inventory lists for 1981-2010, 1971-2000, and 1961-1990 Normals.

If you haven't already, please take our survey and provide feedback about our website: https://eccc.sondage-survey.ca/f/LanguageSelection.aspx?s=442ca660-fcf1-47c0-95a9-59707d6fd709

Hourly Data Report for April 11, 2021

CLYDE RIVER A
NUNAVUT
Current Station Operator: NAVCAN

70°29'09.000" N
68°31'01.000" W
26.50 m
2400804
71090
YCY

Download Data

Hourly Data (April 2021)
Hourly Data Report for April 11, 2021
TIME
LST
Temp Definition
°C
Dew Point Definition
°C
Rel Hum Definition
%
Precip. Amount Definition
mm

Wind Dir Definition
10's deg

Wind Spd Definition
km/h
Visibility Definition
km
Stn Press Definition
kPa
Hmdx Definition


Wind Chill Definition


Weather Definition


00:00 -4.4 -8.5 73 0.0 LegendMM 5 16.1 101.73   -7 LegendNANA
01:00 -3.2 -3.8 96 0.0 16 22 16.1 101.66   -10 Snow
02:00 -2.6 -3.6 93 0.0 14 32 6.4 101.54   -10 Snow
03:00 -4.5 -5.2 95 0.0 14 24 16.1 101.45   -12 Snow
04:00 -5.4 -6.1 95 0.0 14 41 3.6 101.31   -15 Snow
05:00 -5.5 -6.0 96 0.0 14 32 4.0 101.27   -14 Snow
06:00 -4.0 -5.4 90 0.0 14 24 16.1 101.18   -11 Snow
07:00 -1.9 -3.6 88 0.0 21 32 16.1 101.09   -9 Snow
08:00 -1.1 -4.8 76 0.0 21 30 16.1 101.05   -8 LegendNANA
09:00 -0.8 -4.8 75 0.0 20 21 16.1 101.02   -6 LegendNANA
10:00 -0.4 -4.0 77 0.0 22 34 4.8 100.94   -7 Snow
11:00 0.0 -4.5 72 0.0 23 26 16.1 100.99   -6 LegendNANA
12:00 -1.3 -4.0 82 0.0 21 45 9.7 101.02   -10 Snow
13:00 -0.7 -5.1 72 0.0 22 35 16.1 100.99   -8 LegendNANA
14:00 -1.5 -4.5 80 0.0 21 32 16.1 101.03   -9 LegendNANA
15:00 -0.7 -4.1 78 0.0 31 9 16.1 101.10   -4 Snow
16:00 -1.2 -4.7 77 0.0 29 13 16.1 101.16   -5 LegendNANA
17:00 -1.8 -5.7 75 0.0 15 5 16.1 101.20   -4 LegendNANA
18:00 -2.6 -5.7 80 0.0 34 4 16.1 101.29   -4 LegendNANA
19:00 -2.1 -5.3 79 0.0 18 9 16.1 101.35   -6 LegendNANA
20:00 -4.5 -6.2 88 0.0 31 11 16.1 101.40   -9 LegendNANA
21:00 -4.8 -6.9 85 0.0 31 13 16.1 101.43   -10 LegendNANA
22:00 -3.1 -5.8 82 0.0 20 5 16.1 101.50   -5 LegendNANA
23:00 -4.4 -6.3 87 0.0 16 5 16.1 101.53   -7 LegendNANA

Notes on Data Quality.

Legend

  • E = Estimated
  • M = Missing
  • NA = Not Available*
  • [empty] = Indicates an unobserved value
Date modified: